Regional Weather Roundup
Issued by NWS Cleveland, OH

Home | Current Version | Previous Version | Graphics & Text | Print | Product List | Glossary On
Versions: 1 2 3 4 5 6 7 8 9 10 11 12 13 14 15 16 17 18 19 20 21 22 23 24 25 26 27 28 29 30 31 32 33 34 35 36 37 38 39 40 41 42 43 44 45 46 47 48 49 50
000
ASUS41 KCLE 290902
RWRCLE
OHIO REGIONAL WEATHER ROUNDUP
NATIONAL WEATHER SERVICE CLEVELAND, OH
500 AM EDT FRI APR 29 2016

NOTE: "FAIR" INDICATES FEW OR NO CLOUDS BELOW 12,000 FEET WITH NO
SIGNIFICANT WEATHER AND/OR OBSTRUCTIONS TO VISIBILITY.

OHZ001>008-015>018-024>027-034-035-043-044-291000-
   NORTHWEST OHIO

CITY           SKY/WX    TMP DP  RH WIND       PRES   REMARKS
DEFIANCE       CLOUDY    48  38  68 N3        30.01S
FINDLAY        CLOUDY    45  40  82 N9        29.98S
TOLEDO EXPRESS CLOUDY    46  35  65 NE6       30.00S
TOLEDO EXEC    CLOUDY    46  35  65 NE5       30.01S
LIMA           CLOUDY    45  43  93 N5        29.98S
$$

OHZ009>014-019>023-028>033-038-089-291000-
   NORTHEAST OHIO

CITY           SKY/WX    TMP DP  RH WIND       PRES   REMARKS
CLE-HOPKINS    LGT RAIN  47  45  93 NW3       30.00R FOG
CLE-LAKEFRONT  LGT RAIN  47  44  90 E6        29.97R
CUY CO. ARPT   NOT AVBL
LORAIN-ELYRIA  LGT RAIN  45  42  89 NE3       29.98S FOG
ASHTABULA      CLOUDY    45  43  93 E3        29.98R
AKRON-CANTON   CLOUDY    46  44  93 NE5       29.96R FOG
WOOSTER        CLOUDY    47  45  93 CALM      29.97R
MANSFIELD      FOG       46  46 100 N3        29.96S VSB 3/4
YOUNGSTOWN     LGT RAIN  45  43  93 NE6       29.95S FOG
$$

OHZ042-051>053-060>062-070>072-077>081-291000-
  SOUTHWEST OHIO

CITY           SKY/WX    TMP DP  RH WIND       PRES   REMARKS
CINC-COVINGTON CLOUDY    55  53  93 NW3       29.98R FOG
CINC-LUNKEN    CLOUDY    57  56  96 CALM      29.98S FOG
HAMILTON       CLOUDY    56  53  90 CALM      29.98S FOG
DAYTON         CLOUDY    50  49  96 VRB5      29.99R FOG
WRIGHT-PAT AFB NOT AVBL
DAYTON GENERAL CLOUDY    52  50  93 W5        29.97S FOG
WILMINGTON     FOG       51  51 100 CALM      29.96S VSB 1/2
$$

OHZ036-037-039>041-045>050-054>059-063>069-073>076-082>088-291000-
  CENTRAL AND SOUTHEAST OHIO

CITY           SKY/WX    TMP DP  RH WIND       PRES   REMARKS
COLUMBUS       CLOUDY    51  49  92 NW6       29.96R FOG
OSU AIRPORT    CLOUDY    51  49  92 N6        29.97R FOG
BOLTON FIELD   NOT AVBL
RICKENBACK AFB NOT AVBL
NEWARK         CLOUDY    53  49  86 CALM      29.96R FOG
MARION         FOG       46  46 100 NW3       29.98S VSB 1/2
LANCASTER      CLOUDY    54  51  90 N3        29.96S FOG
ZANESVILLE     CLOUDY    53  49  86 NW7       29.97R FOG
NEW PHILLY     CLOUDY    48  45  89 N3        29.97R
$$




USA.gov is the U.S. government's official web portal to all federal, state and local government web resources and services.